This is the latest recevied weather packets stored in our database for station/object F5GJJ-13. If no packets are shown the sender has not sent any weather packets the latest 10 day(s).
| Time | Temp. | Humidity | Pressure | Rain* | Wind** | Luminosity | Snow |
|---|---|---|---|---|---|---|---|
| 1778147762 | 18.33° C | 74% | 1014.6 hPa | 0 mm | - | - | - |
| 1778147356 | 17.78° C | 75% | 1014.6 hPa | 0 mm | - | - | - |
| 1778146396 | 16.67° C | 78% | 1014.6 hPa | 0 mm | - | - | - |
| 1778145960 | 16.67° C | 79% | 1014.6 hPa | 0 mm | - | - | - |
| 1778145436 | 16.11° C | 79% | 1014.6 hPa | 0 mm | - | - | - |
| 1778144475 | 16.11° C | 81% | 1014.6 hPa | 0 mm | - | - | - |
| 1778144162 | 15.56° C | 81% | 1014.6 hPa | 0 mm | - | - | - |
| 1778143515 | 15.56° C | 81% | 1014.6 hPa | 0 mm | - | - | - |
| 1778142555 | 15° C | 82% | 1013.6 hPa | 0 mm | - | - | - |
| 1778142361 | 15° C | 82% | 1013.6 hPa | 0 mm | - | - | - |
| 1778141595 | 14.44° C | 83% | 1014.6 hPa | 0 mm | - | - | - |
| 1778140636 | 14.44° C | 84% | 1014.6 hPa | 0 mm | - | - | - |
| 1778140563 | 14.44° C | 84% | 1014.6 hPa | 0 mm | - | - | - |
| 1778139676 | 13.89° C | 83% | 1014.6 hPa | 0 mm | - | - | - |
| 1778138763 | 13.89° C | 84% | 1014.6 hPa | 0 mm | - | - | - |
| 1778138716 | 13.89° C | 84% | 1014.6 hPa | 0 mm | - | - | - |
| 1778137756 | 13.33° C | 82% | 1014.6 hPa | 0 mm | - | - | - |
| 1778136961 | 13.33° C | 84% | 1014.6 hPa | 0 mm | - | - | - |
| 1778136795 | 13.33° C | 83% | 1014.6 hPa | 0 mm | - | - | - |
| 1778135835 | 13.33° C | 84% | 1014.6 hPa | 0 mm | - | - | - |
| 1778135161 | 13.33° C | 83% | 1014.6 hPa | 0 mm | - | - | - |
| 1778134875 | 13.33° C | 83% | 1014.6 hPa | 0 mm | - | - | - |
| 1778133915 | 13.89° C | 86% | 1014.6 hPa | 0 mm | - | - | - |
| 1778133360 | 13.33° C | 86% | 1014.6 hPa | 0 mm | - | - | - |
| 1778132956 | 13.33° C | 86% | 1014.6 hPa | 0 mm | - | - | - |
* Rain latest hour (hover to see other rain measurements)
** Current wind speed in m/s (hover to see current wind gust speed)